[[{"header":{"parameterUnit":"m.s-1","parameterCategory":1,"la1":30.2991,"la2":30.254,"lo1":-89.0895,"lo2":-89.0444,"dy":0.0017,"dx":0.0017,"nx":28,"ny":28,"refTime":"2024-12-16T03:00:00:Z","depth":0,"parameterNumber":2,"parameterNumberName":"U-component_of_WINDS"},"data":[0,0,0,0,0,0,0,0,0,0,0,0,0,0,0,0,0,0,0,0,0,0,0,0,0,0,0,0,0,0,0,0,0,0,0,0,0,0,0,0,0,0,0,0,0,0,0,0,0,0,0,0,0,0,0,0,0,0,-4.329,-4.329,0,-4.3294,-4.3294,-4.3294,-4.3188,-4.3185,-4.3182,-4.3179,-4.3184,-4.3187,-4.319,0,0,0,0,0,0,0,0,0,0,0,0,0,-4.3193,-4.3195,-4.329,-4.329,-4.329,-4.3294,-4.3294,-4.3294,-4.3188,-4.3185,-4.3181,-4.3178,-4.3183,-4.3187,-4.319,0,0,0,0,0,0,0,0,0,0,0,0,0,-4.322,-4.3196,-4.329,-4.3238,-4.3233,-4.3294,-4.3294,-4.3294,-4.3189,-4.3185,-4.318,-4.3176,-4.3182,-4.3186,-4.319,-4.3301,0,0,-4.3203,-4.3205,0,0,0,0,0,0,0,0,-4.3219,-4.3224,-4.3245,-4.3242,-4.3236,-4.3236,-4.3261,-4.3297,-4.319,-4.3206,-4.3179,-4.3174,-4.3205,-4.3207,-4.3217,-4.3302,-4.3302,-4.3203,-4.3206,-4.3208,-4.3209,0,0,0,0,0,0,0,-4.3217,-4.3223,-4.3292,-4.3246,-4.324,-4.3215,-4.3214,-4.3268,-4.3229,-4.3204,-4.3196,-4.3198,-4.3202,-4.3213,-4.3216,-4.3302,-4.3203,-4.3207,-4.321,-4.3211,-4.3479,-4.3484,0,0,0,0,0,0,-4.3222,-4.3222,-4.3291,-4.3292,-4.3217,-4.322,-4.3219,-4.324,-4.3228,-4.3222,-4.3202,-4.3193,-4.3208,-4.3212,-4.3216,-4.3346,-4.3208,-4.3212,-4.3214,-4.3475,-4.348,-4.3485,0,0,0,0,0,0,-4.322,-4.3229,-4.3291,-4.3255,-4.3261,-4.3226,-4.3251,-4.3243,-4.3254,-4.3227,-4.3219,-4.3221,-4.3205,-4.321,-4.3281,-4.3345,-4.3214,-4.3217,-4.3469,-4.3477,-4.3483,-4.3607,0,0,0,0,0,0,-4.3218,-4.3229,-4.3271,-4.3256,-4.3263,-4.3356,-4.3255,-4.3246,-4.3262,-4.325,-4.3242,-4.3237,-4.3202,-4.3276,-4.3286,-4.3348,-4.3221,-4.3464,-4.3473,-4.3481,-4.3597,-4.3618,-4.3635,0,0,0,0,0,-4.3215,-4.3305,-4.3273,-4.3282,-4.3314,-4.336,-4.3364,-4.3322,-4.3267,-4.3309,-4.3291,-4.3237,-4.3336,-4.3284,-4.3294,-4.3359,-4.3459,-4.347,-4.348,-4.3589,-4.3614,-4.3635,0,0,0,0,0,0,-4.3328,-4.3302,-4.3266,-4.3355,-4.3361,-4.3342,-4.3393,-4.3349,-4.337,-4.3359,-4.3306,-4.3305,-4.3385,-4.3379,-4.3321,-4.3467,-4.3388,-4.3401,-4.3468,-4.3491,-4.3509,-4.3509,-4.3224,0,0,0,0,0,-4.3363,-4.3402,-4.3378,-4.3458,-4.3463,-4.3428,-4.3447,-4.3414,-4.3417,-4.3419,-4.3406,-4.3413,-4.3445,-4.3467,-4.3496,-4.3596,-4.3593,-4.3646,-4.3665,-4.368,-4.3692,-4.3746,-4.3769,-4.352,-4.352,-4.3519,0,0,-4.3436,-4.3427,-4.3455,-4.3481,-4.3481,-4.3524,-4.3431,-4.3479,-4.351,-4.3426,-4.3493,-4.3484,-4.3487,-4.3574,-4.3611,-4.3572,-4.3761,-4.3694,-4.3706,-4.371,-4.3759,-4.3783,-4.3804,-4.3527,-4.3525,-4.3524,0,0,-4.3591,-4.3588,-4.3655,-4.3658,-4.3659,-4.3636,-4.3652,-4.3641,-4.3632,-4.3698,-4.3636,-4.3673,-4.3729,-4.3735,-4.3745,-4.3904,-4.3855,-4.3914,-4.4013,-4.4066,-4.4085,-4.4103,-4.416,-4.4181,-4.3926,-4.3927,-4.3927,0,-4.3681,-4.3742,-4.3695,-4.3748,-4.3762,-4.3688,-4.3757,-4.3761,-4.3773,-4.3784,-4.3739,-4.381,-4.3807,-4.3894,-4.3933,-4.3944,-4.3961,-4.3915,-4.4086,-4.4103,-4.4119,-4.4173,-4.4195,-4.3934,-4.3933,-4.3932,-4.3932,0,-4.3854,-4.3898,-4.3952,-4.3965,-4.3985,-4.4045,-4.4008,-4.4034,-4.4,-4.3982,-4.405,-4.4044,-4.4071,-4.4089,-4.4056,-4.4172,-4.4147,-4.4096,-4.4016,-4.415,-4.4201,-4.4221,-4.3944,-4.3942,-4.3939,-4.3938,0,0,-4.4079,-4.4067,-4.4087,-4.4093,-4.4091,-4.4123,-4.4181,-4.4207,-4.4231,-4.4241,-4.4289,-4.434,-4.4292,-4.4304,-4.427,-4.4317,-4.4445,-4.4259,-4.4259,-4.4295,-4.4574,-4.4613,-4.4638,-4.4413,-4.4416,-4.4419,-4.4574,0,-4.423,-4.4328,-4.4288,-4.4389,-4.443,-4.4361,-4.4411,-4.4416,-4.4401,-4.4433,-4.4416,-4.4453,-4.4386,-4.4393,-4.4436,-4.442,-4.45,-4.4408,-4.4457,-4.4459,-4.4459,-4.4664,-4.4706,-4.4852,-4.4593,-4.4596,-4.4599,0,-4.4419,-4.4438,-4.4544,-4.4536,-4.4551,-4.4597,-4.4618,-4.465,-4.4654,-4.4639,-4.4654,-4.461,-4.4667,-4.4588,-4.4666,-4.4605,-4.4622,-4.4618,-4.4622,-4.4625,-4.4537,-4.4674,-4.4897,-4.492,-4.4629,-4.4627,-4.4624,0,-4.4574,-4.4626,-4.4696,-4.4703,-4.4695,-4.4729,-4.4727,-4.4727,-4.4746,-4.4764,-4.4776,-4.4801,-4.4815,-4.4836,-4.4801,-4.4747,-4.4885,-4.4803,-4.4875,-4.4877,-4.4908,-4.4906,-4.5138,-4.4919,-4.4918,-4.4918,-4.4918,0,-4.4747,-4.4814,-4.4766,-4.4809,-4.4883,-4.4837,-4.4912,-4.4902,-4.4903,-4.4944,-4.4886,-4.4926,-4.4877,-4.4913,-4.4886,-4.4956,-4.4962,-4.4953,-4.4945,-4.4958,-4.4959,-4.4969,-4.4958,-4.4924,-4.4923,-4.4921,-4.492,0,-4.4932,-4.4902,-4.4974,-4.4961,-4.4959,-4.5015,-4.5003,-4.5043,-4.5024,-4.5077,-4.5087,-4.5057,-4.5096,-4.5063,-4.5101,-4.5083,-4.5175,-4.5153,-4.5174,-4.5168,-4.5243,-4.5236,-4.5489,-4.552,-4.5281,-4.5283,-4.5285,0,-4.5044,-4.5095,-4.5087,-4.5111,-4.5113,-4.5151,-4.517,-4.5127,-4.5149,-4.5158,-4.5198,-4.5231,-4.5256,-4.5321,-4.5304,-4.5332,-4.531,-4.5397,-4.5314,-4.5326,-4.5312,-4.531,-4.5315,-4.5414,-4.5417,-4.5419,-4.5421,0,-4.5247,-4.523,-4.526,-4.5285,-4.5309,-4.5327,-4.534,-4.5362,-4.5318,-4.5347,-4.5386,-4.5405,-4.5444,-4.5478,-4.5501,-4.55,-4.5454,-4.5447,-4.5465,-4.548,-4.549,-4.5486,-4.522,-4.5441,-4.5439,-4.5438,-4.5437,-4.5436,-4.5399,-4.5442,-4.5444,-4.5479,-4.5484,-4.5498,-4.5535,-4.5522,-4.5553,-4.5582,-4.5555,-4.5602,-4.5606,-4.5632,-4.5637,-4.5674,-4.5637,-4.5664,-4.5671,-4.5678,-4.5689,-4.5485,-4.5677,-4.5677,-4.5676,-4.5676,-4.5675,0,-4.56,-4.5598,-4.5631,-4.5651,-4.568,-4.5634,-4.5646,-4.5673,-4.5716,-4.5723,-4.5749,-4.5795,-4.5829,-4.5814,-4.5844,-4.5876,-4.5856,-4.5886,-4.5883,-4.5883,-4.5719,-4.5701,-4.5901,-4.5901,-4.5901,-4.5901,-4.5901,-4.5901,-4.5707,-4.5777,-4.5761,-4.5833,-4.583,-4.5876,-4.5888,-4.5901,-4.5906,-4.596,-4.5988,-4.5978,-4.5977,-4.6007,-4.6036,-4.6031,-4.6045,-4.6082,-4.607,-4.5917,-4.5895,-4.5873,-4.5856,-4.6086,-4.6086,-4.623,-4.6232,-4.6233]},{"header":{"parameterUnit":"m.s-1","parameterCategory":1,"la1":30.2991,"la2":30.254,"lo1":-89.0895,"lo2":-89.0444,"dy":0.0017,"dx":0.0017,"nx":28,"ny":28,"refTime":"2024-12-16T03:00:00:Z","depth":0,"parameterNumber":3,"parameterNumberName":"V-component_of_WINDS"},"data":[0,0,0,0,0,0,0,0,0,0,0,0,0,0,0,0,0,0,0,0,0,0,0,0,0,0,0,0,0,0,0,0,0,0,0,0,0,0,0,0,0,0,0,0,0,0,0,0,0,0,0,0,0,0,0,0,0,0,0.0685,0.0685,0,0.0659,0.0659,0.0658,0.067,0.0671,0.0672,0.0672,0.0643,0.0642,0.0641,0,0,0,0,0,0,0,0,0,0,0,0,0,0.0745,0.0744,0.0685,0.0685,0.0685,0.0659,0.0659,0.0658,0.067,0.0671,0.0672,0.0673,0.0644,0.0642,0.0641,0,0,0,0,0,0,0,0,0,0,0,0,0,0.0719,0.0744,0.0685,0.0688,0.0688,0.0659,0.0659,0.0658,0.067,0.0671,0.0672,0.0673,0.0644,0.0642,0.064,0.0608,0,0,0.0634,0.0633,0,0,0,0,0,0,0,0,0.072,0.0717,0.0688,0.0687,0.0687,0.0669,0.0669,0.0641,0.067,0.0677,0.0672,0.0674,0.0651,0.0648,0.0641,0.0606,0.0605,0.0634,0.0633,0.0632,0.0631,0,0,0,0,0,0,0,0.0722,0.0718,0.0675,0.0687,0.0687,0.069,0.0687,0.0664,0.0659,0.0676,0.0677,0.0674,0.0651,0.0643,0.0641,0.0605,0.0634,0.0632,0.0631,0.063,0.0543,0.0542,0,0,0,0,0,0,0.0724,0.0719,0.0676,0.0674,0.0707,0.0688,0.0685,0.0674,0.0659,0.0658,0.0673,0.0675,0.0646,0.0643,0.064,0.0601,0.0632,0.063,0.0628,0.0544,0.0543,0.0542,0,0,0,0,0,0,0.0725,0.072,0.0677,0.0697,0.0692,0.0686,0.0673,0.0673,0.0665,0.0656,0.0655,0.0666,0.0647,0.0643,0.0616,0.0601,0.0629,0.0627,0.0545,0.0544,0.0542,0.0524,0,0,0,0,0,0,0.0727,0.0721,0.0708,0.0697,0.0691,0.0654,0.0672,0.0672,0.0662,0.0663,0.065,0.0648,0.0647,0.0619,0.0614,0.0598,0.0625,0.0547,0.0544,0.0543,0.0526,0.0522,0.0519,0,0,0,0,0,0.0729,0.0703,0.0707,0.0702,0.0675,0.0653,0.0649,0.0649,0.066,0.0648,0.0643,0.0649,0.0603,0.0616,0.0611,0.0594,0.0548,0.0545,0.0543,0.0528,0.0523,0.0519,0,0,0,0,0,0,0.0712,0.0702,0.0706,0.0676,0.0665,0.0655,0.0639,0.0644,0.0629,0.0631,0.0632,0.0628,0.0601,0.0595,0.061,0.0562,0.0577,0.0573,0.0567,0.0563,0.0559,0.0561,0.0623,0,0,0,0,0,0.0705,0.0688,0.068,0.0654,0.0648,0.0645,0.0635,0.0636,0.0625,0.062,0.0613,0.0601,0.0584,0.0573,0.0557,0.0525,0.0523,0.0511,0.0507,0.0504,0.0501,0.0485,0.048,0.0534,0.0534,0.0534,0,0,0.0689,0.0682,0.0671,0.065,0.0642,0.0625,0.0641,0.0621,0.0608,0.0617,0.0592,0.0586,0.0573,0.0544,0.0531,0.0538,0.0486,0.0501,0.0499,0.0498,0.0482,0.0477,0.0473,0.0532,0.0532,0.0533,0,0,0.0652,0.0645,0.0623,0.0615,0.0603,0.0601,0.0596,0.0585,0.0582,0.0557,0.0564,0.0548,0.0519,0.051,0.0502,0.0463,0.0469,0.0458,0.0439,0.0423,0.0419,0.0415,0.0402,0.0398,0.0455,0.0455,0.0455,0,0.0634,0.0609,0.0611,0.0592,0.0583,0.0591,0.0569,0.0561,0.0544,0.0538,0.0546,0.0511,0.0502,0.0472,0.0463,0.0456,0.045,0.046,0.042,0.0416,0.0412,0.04,0.0395,0.0454,0.0454,0.0454,0.0454,0,0.0588,0.0571,0.0554,0.0539,0.0529,0.0508,0.0507,0.0495,0.0498,0.0495,0.047,0.0461,0.0444,0.0437,0.0438,0.0407,0.0412,0.042,0.0435,0.0406,0.0395,0.039,0.0452,0.0452,0.0453,0.0453,0,0,0.0538,0.0526,0.052,0.0514,0.0503,0.0489,0.0469,0.0453,0.0444,0.0433,0.0416,0.0392,0.04,0.0391,0.0391,0.0378,0.0349,0.0387,0.0387,0.0381,0.0315,0.031,0.0304,0.0353,0.0352,0.0351,0.0317,0,0.0502,0.0468,0.047,0.0438,0.0422,0.0431,0.0413,0.0404,0.0402,0.0388,0.0384,0.0368,0.0379,0.0373,0.036,0.0356,0.0336,0.0358,0.0338,0.0337,0.0341,0.0298,0.0292,0.0259,0.0312,0.0311,0.0311,0,0.0454,0.0442,0.0409,0.0401,0.0395,0.0379,0.0366,0.0353,0.0343,0.0342,0.0332,0.0336,0.0316,0.0331,0.0304,0.0319,0.0311,0.0308,0.0307,0.0305,0.0322,0.0295,0.0249,0.0244,0.0303,0.0304,0.0304,0,0.0422,0.0398,0.0376,0.037,0.036,0.0349,0.0345,0.0336,0.0327,0.0315,0.0309,0.0295,0.0287,0.0276,0.0275,0.0287,0.0248,0.0263,0.0247,0.0247,0.0238,0.0239,0.019,0.0232,0.0233,0.0233,0.0233,0,0.0381,0.036,0.0361,0.0348,0.0325,0.0328,0.0306,0.0302,0.0294,0.028,0.0286,0.0272,0.0273,0.0259,0.0258,0.0236,0.0233,0.0231,0.0231,0.0231,0.0231,0.0226,0.0228,0.0231,0.0232,0.0232,0.0232,0,0.0341,0.0341,0.0317,0.0311,0.0309,0.0293,0.0287,0.0274,0.0272,0.0254,0.025,0.0247,0.0231,0.023,0.0211,0.0211,0.0184,0.0187,0.0188,0.0189,0.0172,0.0174,0.0118,0.0112,0.0158,0.0158,0.0157,0,0.0315,0.03,0.0292,0.0284,0.0279,0.0264,0.0256,0.0258,0.0249,0.0238,0.0226,0.0211,0.0199,0.0173,0.0169,0.0155,0.0157,0.0139,0.0155,0.0156,0.0158,0.0159,0.0158,0.0136,0.0135,0.0135,0.0134,0,0.0269,0.027,0.0258,0.0246,0.0236,0.0226,0.0217,0.021,0.0211,0.02,0.0185,0.0176,0.0158,0.0143,0.0129,0.0124,0.0129,0.013,0.0125,0.0124,0.0126,0.0126,0.018,0.0131,0.0131,0.0131,0.0131,0.0132,0.0235,0.0223,0.0216,0.0203,0.0197,0.0189,0.0177,0.0174,0.0162,0.0148,0.015,0.0133,0.0125,0.0107,0.0101,0.0088,0.0094,0.0087,0.0086,0.0084,0.0083,0.0128,0.0085,0.0085,0.0086,0.0086,0.0086,0,0.019,0.0187,0.0175,0.0163,0.0153,0.016,0.0151,0.0141,0.0127,0.0119,0.0108,0.0091,0.0077,0.0072,0.0059,0.0049,0.0051,0.0045,0.0046,0.0045,0.0078,0.0083,0.0044,0.0044,0.0044,0.0044,0.0044,0.0044,0.0165,0.0145,0.0146,0.0123,0.0119,0.0104,0.0098,0.0091,0.0085,0.0066,0.0055,0.0053,0.0046,0.0033,0.002,0.0019,0.0014,0.0008,0.0008,0.0038,0.0043,0.0047,0.0052,0.0006,0.0006,-0.0024,-0.0024,-0.0024]}]]